Flag for U.S.A. Weather past 2 weeks in Philadelphia, Pennsylvania, U.S.A.

Now
74 °F

Mostly cloudy.


Feels Like: 76 °F
Forecast: 67 / 81 °F
Wind: 5 mph from Northwest

Location: Philadelphia International Airport

Current Time: Jul 2, 2015 at 10:52:59 PM

Latest Report: Jul 2, 2015 at 9:54 PM


Visibility: 10 mi

Pressure: 29.89 "Hg

Humidity: 69%

Dew point: 63 °F

Location of PhiladelphiaLocation

Historic Weather in Philadelphia — Graph

°F

Philadelphia temperature yesterday

Maximum temperature yesterday: 86 °F (at 4:54 PM)
Minimum temperature yesterday: 70 °F (at 4:54 AM)
Average temperature yesterday: 78 °F

Past Weeks' High & Low Weather Summary

 TemperatureHumidityPressure
High94 °F (Jun 23, 2:54 PM)93% (Jun 18, 4:54 AM)30.11 "Hg (Jun 18, 4:54 AM)
Low63 °F (Jun 27, 7:54 PM)35% (Jun 22, 11:54 AM)29.63 "Hg (Jun 28, 4:54 AM)
Average76 °F67%29.92 "Hg
* Reported Jun 17 9:54 PM — Jul 2 9:54 PM, Philadelphia, Weather by CustomWeather, © 2015

Note: Actual official high and low records may vary slightly from our data, if they occured in-between our weather recording intervals... More about our weather records

Advertising

Philadelphia weather history for previous 24 hours

 ConditionsComfort  
Time TempWeatherWind HumidityBarometerVisibility
9:54 PM
Thu, Jul 2
74 °FMostly cloudy.5 mph69%29.89 "Hg10 mi
8:54 PM73 °FMostly cloudy.3 mph76%29.87 "Hg9 mi
7:54 PM73 °FLight rain. Mostly cloudy.3 mph79%29.86 "Hg8 mi
6:54 PM74 °FLight rain. Mostly cloudy.3 mph71%29.88 "Hg9 mi
5:54 PM75 °FMostly cloudy.No wind66%29.87 "Hg10 mi
4:54 PM75 °FOvercast.3 mph64%29.88 "Hg10 mi
3:54 PM75 °FMostly cloudy.5 mph64%29.89 "Hg10 mi
2:54 PM77 °FMostly cloudy.6 mph62%29.89 "Hg10 mi
1:54 PM73 °FMostly cloudy.3 mph71%29.90 "Hg10 mi
12:54 PM75 °FCloudy.7 mph66%29.90 "Hg10 mi
11:54 AM73 °FMostly cloudy.8 mph69%29.91 "Hg10 mi
10:54 AM71 °FLight rain. Mostly cloudy.5 mph76%29.91 "Hg8 mi
9:54 AM72 °FLight rain. Cloudy.3 mph73%29.91 "Hg5 mi
8:54 AM73 °FMostly cloudy.3 mph66%29.91 "Hg7 mi
7:54 AM72 °FOvercast.3 mph68%29.90 "Hg7 mi
6:54 AM70 °FMore clouds than sun.3 mph73%29.90 "Hg7 mi
5:54 AM67 °FPassing clouds.No wind79%29.88 "Hg8 mi
4:54 AM70 °FPassing clouds.No wind76%29.88 "Hg10 mi
3:54 AM71 °FClear.No wind68%29.88 "Hg10 mi
2:54 AM71 °FPassing clouds.No wind66%29.88 "Hg10 mi
1:54 AM73 °FPassing clouds.No wind62%29.89 "Hg10 mi
12:54 AM75 °FPassing clouds.5 mph58%29.90 "Hg10 mi
11:54 PM
Wed, Jul 1
78 °FPassing clouds.7 mph50%29.90 "Hg10 mi
10:54 PM80 °FHigh level clouds.7 mph47%29.89 "Hg10 mi
Weather by CustomWeather, © 2015

See weather overviewHow to use our weather pages